x

9439040 - Astoria, Or (asto3) Weather Station

2:54 - Fri 29th Aug 2014 All times are PDT. -7 hours from GMT.

  • Wind
    2mph, 5mph gusts
  • Sea Temp 71°f
  • Luft Temp 68°f
  • Sea Pressure 1017.2mb
  • 9439040 - Astoria, Or
  • 9439040 - Astoria, Or

More Historic Weather Station data

Upgrade to MSW Pro to gain access to the past 30 days of data for over 8000 Wavebouys and Weather Stations around the globe.

Join Pro

Comparision Forecast

View Surf forecast
   
Fr 08/29 2:54 2 5 mph 1017.2mb 71f 68f
2:48 1 5 mph 1017.2mb 71f 68f
2:42 1 7 mph 1017.3mb 71f 68f
2:36 1 9 mph 1017.2mb 71f 67f
2:30 5 11 mph 1017.3mb 71f 67f
2:24 1 7 mph 1017.4mb 71f 67f
2:18 3 10 mph 1017.4mb 71f 67f
2:12 3 7 mph 1017.5mb 71f 67f
2:06 2 11 mph 1017.5mb 71f 67f
2:00 3 9 mph 1017.5mb 71f 67f
1:54 2 10 mph 1017.4mb 71f 68f
1:48 6 11 mph 1017.3mb 71f 67f
1:42 2 11 mph 1017.2mb 71f 67f
1:36 7 11 mph 1017.1mb 71f 66f
1:30 8 11 mph 1017.1mb 71f 66f
1:24 7 11 mph 1017.1mb 71f 66f
1:18 9 11 mph 1017.1mb 71f 66f
1:12 6 11 mph 1017.2mb 71f 67f
1:06 6 13 mph 1017.1mb 71f 66f
1:00 5 13 mph 1017.3mb 71f 66f
12:54 8 14 mph 1017.4mb 71f 66f
12:48 5 8 mph 1017.4mb 71f 65f
12:42 5 6 mph 1017.3mb 71f 65f
12:36 2 6 mph 1017.3mb 71f 65f
12:30 5 6 mph 1017.4mb 71f 65f
12:24 2 6 mph 1017.3mb 71f 65f
12:18 3 5 mph 1017.3mb 71f 64f
12:12 5 6 mph 1017.4mb 71f 64f
12:06 5 6 mph 1017.3mb 71f 64f
12:00 5 6 mph 1017.3mb 71f 64f
11:54 6
mph
1017.2mb 70f 64f
11:48 5 6 mph 1017.2mb 70f 64f
11:42 3 6 mph 1017.2mb 70f 64f
11:36 2 3 mph 1017.2mb 70f 65f
11:30 2
mph
1017.1mb 70f 64f
11:24  -  3 mph 1017.2mb 70f 64f
11:18 3 6 mph 1017.3mb 70f 63f
11:12 2 5 mph 1017.3mb 70f 64f
11:06 2 5 mph 1017.3mb 70f 64f
11:00 3 5 mph 1017.4mb 70f 63f
10:54 5 6 mph 1017.3mb 70f 63f
10:48  -  1 mph 1017.4mb 70f 64f
10:42  -  2 mph 1017.3mb 70f 63f
10:36 1 3 mph 1017.3mb 70f 62f
10:30 1 2 mph 1017.2mb 70f 62f
10:24  -  2 mph 1017.2mb 69f 63f
10:18 2 3 mph 1017.3mb 69f 62f
10:12 1 3 mph 1017.3mb 69f 62f
10:06 3 5 mph 1017.1mb 69f 62f
10:00  -  3 mph 1017.2mb 69f 62f
9:54 1 2 mph 1017.2mb 69f 62f
9:48 1 2 mph 1017.1mb 69f 61f
9:42  -  1 mph 1017.2mb 70f 61f
9:36 1 3 mph 1017.1mb 70f 61f
9:30  -  3 mph 1017.2mb 70f 61f
9:24 2 3 mph 1017mb 70f 61f
9:18 2 3 mph 1017mb 70f 60f
9:12 3 5 mph 1017.2mb 70f 60f
9:06 5 6 mph 1017.3mb 70f 60f
9:00 5 6 mph 1017.2mb 70f 60f
8:54 5 9 mph 1017.1mb 70f 60f
8:48 3 5 mph 1017mb 70f 59f
8:42 1 5 mph 1017mb 70f 59f
8:36 3 5 mph 1017mb 70f 59f
8:30 3 5 mph 1017mb 70f 59f
8:24 3 6 mph 1017mb 70f 59f
8:18 2 3 mph 1017mb 70f 59f
8:12 2 6 mph 1017mb 70f 59f
8:06 5 6 mph 1017mb 70f 58f
8:00 3 6 mph 1016.9mb 70f 58f
7:54 5 8 mph 1016.9mb 70f 58f
7:48 6 8 mph 1017mb 70f 58f
7:42 6 7 mph 1016.9mb 70f 58f
7:36 6
mph
1016.9mb 69f 58f
7:30 3 6 mph 1016.9mb 69f 58f
7:24 3 7 mph 1016.9mb 70f 58f
7:18 6 7 mph 1016.9mb 70f 58f
7:12 5 7 mph 1017mb 70f 58f
7:06 6 7 mph 1016.9mb 70f 58f
7:00 6 8 mph 1016.9mb 70f 58f
6:54 8 9 mph 1016.9mb 70f 59f
6:48 6 7 mph 1016.9mb 70f 59f
6:42 6 7 mph 1016.8mb 70f 59f
6:36 5 8 mph 1016.8mb 70f 59f
6:30 6 8 mph 1016.8mb 70f 59f
6:24 9 11 mph 1016.9mb 70f 60f
6:18 8 10 mph 1016.8mb 70f 60f
6:12 7 9 mph 1016.8mb 71f 60f
6:06 6 7 mph 1016.7mb 71f 60f
6:00 6 8 mph 1016.6mb 71f 60f
5:54 6 9 mph 1016.6mb 71f 60f
5:48 6 8 mph 1016.7mb 71f 61f
5:42 6 8 mph 1016.7mb 71f 61f
5:36 6 8 mph 1016.8mb 71f 61f
5:30 6 7 mph 1016.7mb 71f 61f
5:24 6 8 mph 1016.7mb 70f 61f
5:18 7 8 mph 1016.7mb 70f 61f
5:12 5 7 mph 1016.8mb 70f 61f
5:06 6
mph
1016.8mb 70f 61f
5:00 6
mph
1016.8mb 70f 61f
4:54 5 6 mph 1016.9mb 70f 61f
4:48 5 6 mph 1016.8mb 70f 61f
4:42 5 6 mph 1016.8mb 70f 61f
4:36 5 6 mph 1016.9mb 70f 61f
4:30 5 6 mph 1016.9mb 70f 61f
4:24 5 6 mph 1016.8mb 71f 61f
4:18 3 7 mph 1016.8mb 70f 61f
4:12 6 7 mph 1016.9mb 70f 61f
4:06 6 8 mph 1016.9mb 70f 61f
4:00 6 7 mph 1016.9mb 70f 61f
3:54 6 8 mph 1017mb 70f 62f
3:48 6 8 mph 1017.1mb 70f 62f
3:42 6 8 mph 1017.1mb 70f 62f
3:36 3 7 mph 1017.1mb 71f 62f
3:30 2 7 mph 1017.2mb 71f 62f
3:24 3 7 mph 1017.1mb 71f 62f
3:18 3 8 mph 1017.2mb 71f 62f
3:12 2 6 mph 1017.1mb 71f 62f
3:06 5 8 mph 1017.2mb 71f 62f
3:00 3 7 mph 1017.2mb 71f 63f
2:54 5 8 mph 1017.2mb 71f 63f
2:48 2 8 mph 1017.3mb 71f 63f
2:42 3 7 mph 1017.2mb 71f 63f
2:36 3 9 mph 1017.2mb 71f 63f
2:30 7 9 mph 1017.2mb 71f 63f
2:24 5 9 mph 1017.1mb 71f 63f
2:18 6 9 mph 1017.1mb 71f 63f
2:12 5 8 mph 1017.1mb 71f 62f
2:06 7 8 mph 1017.1mb 71f 62f
2:00 6 8 mph 1017.2mb 71f 62f
1:54 6 8 mph 1017.2mb 71f 62f
1:48 6 10 mph 1017.2mb 71f 62f
1:42 7 9 mph 1017.2mb 71f 63f
1:36 6 7 mph 1017.2mb 71f 63f
1:30 6 8 mph 1017.2mb 71f 63f
1:24 6 8 mph 1017.3mb 71f 63f
1:18 6 7 mph 1017.3mb 71f 63f
1:12 5 6 mph 1017.4mb 71f 63f
1:06 1 2 mph 1017.4mb 71f 63f
1:00 2
mph
1017.4mb 71f 63f
12:54 2
mph
1017.5mb 71f 63f
12:48 1 3 mph 1017.6mb 71f 63f
12:42 1 6 mph 1017.6mb 71f 63f
12:36 5 6 mph 1017.7mb 71f 63f
12:30 5 6 mph 1017.7mb 71f 63f
12:24 6 8 mph 1017.8mb 71f 63f
12:18 3 8 mph 1017.8mb 71f 63f
12:12 2 5 mph 1017.9mb 71f 63f
12:06  -  5 mph 1017.9mb 71f 63f
12:00 5 7 mph 1017.9mb 71f 63f
Do 08/28 11:54 3 6 mph 1017.9mb 71f 64f
11:48 5 6 mph 1017.9mb 71f 63f
11:42 2 5 mph 1017.9mb 71f 64f
11:36 3 6 mph 1018mb 71f 63f
11:30 5 7 mph 1018mb 71f 63f
11:24 3 6 mph 1018mb 71f 64f
11:18 5 6 mph 1018.1mb 70f 64f
11:12 5 6 mph 1018.2mb 70f 64f
11:06 2 6 mph 1018.3mb 70f 64f
11:00 3 7 mph 1018.3mb 70f 64f
10:54 2 6 mph 1018.4mb 70f 64f
10:48 2 6 mph 1018.5mb 70f 64f
10:42 1 5 mph 1018.4mb 70f 64f
10:36 1 5 mph 1018.5mb 70f 65f
10:30 2 6 mph 1018.5mb 70f 64f
10:24 3 5 mph 1018.5mb 70f 64f
10:18 5 7 mph 1018.5mb 70f 64f
10:12 5 8 mph 1018.6mb 70f 64f
10:06 6 9 mph 1018.6mb 70f 64f
10:00 8 10 mph 1018.7mb 70f 64f
9:54 7 9 mph 1018.8mb 70f 64f
9:48 6 8 mph 1018.8mb 70f 65f
9:42 8 10 mph 1019mb 70f 64f
9:36 8 9 mph 1019mb 70f 64f
9:30 7 9 mph 1019mb 70f 64f
9:24 7 9 mph 1019mb 70f 64f
9:18 8 9 mph 1019mb 70f 65f
9:12 7 9 mph 1019mb 70f 65f
9:06 7 10 mph 1019mb 70f 65f
9:00 9 11 mph 1019mb 70f 64f
8:54 10 11 mph 1019mb 70f 65f
8:48 10 11 mph 1019mb 70f 65f
8:42 9 11 mph 1019mb 70f 65f
8:36 8 10 mph 1019mb 70f 65f
8:30 2 7 mph 1019mb 70f 65f
8:24  -  3 mph 1019mb 70f 66f
8:18  -  3 mph 1018.9mb 70f 65f
8:12 2 7 mph 1018.9mb 70f 65f
8:06 2 8 mph 1018.9mb 70f 65f
8:00 3 9 mph 1018.9mb 70f 65f
7:54 2 9 mph 1018.9mb 70f 66f
7:48 1 3 mph 1018.9mb 70f 66f
7:42 1 6 mph 1018.9mb 70f 66f
7:36 2 6 mph 1018.9mb 70f 65f
7:30 2 6 mph 1018.9mb 70f 65f
7:24  -  5 mph 1018.9mb 70f 66f
7:18  -  5 mph 1019mb 70f 65f
7:12 2 6 mph 1019mb 69f 65f
7:06 2 8 mph 1019mb 70f 65f
7:00 1 7 mph 1019mb 69f 66f
6:54 2 7 mph 1019.1mb 69f 66f
6:48 1 9 mph 1019.1mb 68f 66f
6:42 2 7 mph 1019.1mb 68f 66f
6:36  -  7 mph 1019.2mb 69f 67f
6:30 1 9 mph 1019.2mb 70f 67f
6:24 6 9 mph 1019.3mb 70f 67f
6:18 3 9 mph 1019.3mb 70f 67f
6:12 2 7 mph 1019.3mb 70f 67f
6:06 2 6 mph 1019.3mb 70f 68f
6:00 1 5 mph 1019.4mb 71f 68f
5:54 2 6 mph 1019.4mb 71f 68f
5:48 2 6 mph 1019.5mb 71f 68f
5:42 1 5 mph 1019.5mb 71f 68f
5:36 2 5 mph 1019.6mb 71f 69f
5:30 2 5 mph 1019.6mb 71f 69f
5:24 1 5 mph 1019.7mb 71f 69f
5:18  -  5 mph 1019.7mb 71f 69f
5:12 2 5 mph 1019.7mb 71f 69f
5:06 1 3 mph 1019.8mb 71f 69f
5:00 1 5 mph 1019.8mb 71f 69f
4:54  -  2 mph 1019.8mb 71f 69f
4:48 1 3 mph 1019.9mb 71f 69f
4:42 1 3 mph 1019.9mb 71f 69f
4:36 2 5 mph 1020mb 71f 69f
4:30 1 5 mph 1020mb 71f 68f
4:24 2 5 mph 1020.1mb 70f 68f
4:18 2 5 mph 1020.2mb 70f 68f
4:12 1 5 mph 1020.2mb 70f 67f
4:06 1 5 mph 1020.2mb 70f 67f
4:00 2 6 mph 1020.3mb 70f 67f
3:54 3 6 mph 1020.3mb 70f 67f
3:48 2 6 mph 1020.4mb 70f 67f
3:42 3 7 mph 1020.4mb 70f 67f
3:36 2 6 mph 1020.5mb 70f 67f
3:30 2 5 mph 1020.5mb 70f 68f
3:24 2 5 mph 1020.5mb 70f 68f
3:18 2 5 mph 1020.5mb 70f 68f
3:12 1 3 mph 1020.5mb 71f 69f
3:06  -  3 mph 1020.6mb 71f 69f
3:00 1 3 mph 1020.6mb 71f 69f
2:54 2 6 mph 1020.6mb 71f 68f
2:48 2 3 mph 1020.7mb 72f 69f
2:42 2 5 mph 1020.7mb 72f 69f
2:36 1 5 mph 1020.8mb 72f 70f
2:30 1 5 mph 1020.8mb 72f 71f
2:24  -  2 mph 1020.8mb 72f 72f
2:18 1 3 mph 1020.8mb 72f 71f
2:12 2 5 mph 1020.9mb 72f 71f
2:06  -  6 mph 1020.9mb 72f 71f
2:00  -  3 mph 1020.9mb 72f 71f
1:54  -  2 mph 1020.9mb 72f 71f
1:48 1 3 mph 1020.9mb 72f 70f
1:42  -  3 mph 1020.9mb 72f 70f
1:36  -  3 mph 1020.9mb 72f 69f
1:30 1 5 mph 1020.9mb 72f 69f
1:24 3 8 mph 1021mb 72f 68f
1:18 3 7 mph 1021mb 72f 67f
1:12 5 8 mph 1021mb 72f 67f
1:06  -  2 mph 1021.1mb 72f 69f
1:00  -  3 mph 1021.2mb 72f 69f
12:54 1 5 mph 1021.2mb 72f 68f
12:48 1 6 mph 1021.3mb 72f 67f
12:42 3 7 mph 1021.4mb 72f 67f
12:36 2 6 mph 1021.4mb 72f 68f
12:30 1 5 mph 1021.4mb 72f 68f
12:24 1 3 mph 1021.4mb 72f 69f
12:18 1 5 mph 1021.3mb 71f 69f
12:12  -  3 mph 1021.3mb 71f 69f
12:06 3 6 mph 1021.4mb 71f 67f
12:00 2 7 mph 1021.3mb 71f 68f
11:54 2 5 mph 1021.3mb 71f 69f
11:48 2 5 mph 1021.2mb 71f 68f
11:42 2 5 mph 1021.3mb 71f 68f
11:36 2 5 mph 1021.2mb 71f 67f
11:30 2 3 mph 1021.2mb 71f 67f
11:24 1 3 mph 1021.2mb 71f 67f
11:18 2 6 mph 1021.3mb 71f 67f
11:12 5 7 mph 1021.3mb 71f 66f
11:06 5 7 mph 1021.3mb 71f 66f
11:00 2 6 mph 1021.3mb 71f 67f
10:54 2 6 mph 1021.3mb 70f 67f
10:48 2 6 mph 1021.2mb 70f 67f
10:42 3 6 mph 1021.2mb 70f 66f
10:36 2 5 mph 1021.2mb 70f 67f
10:30 3 5 mph 1021.2mb 70f 66f
10:24 2 3 mph 1021.1mb 70f 66f
10:18 2 3 mph 1021mb 70f 66f
10:12  -  2 mph 1021mb 70f 66f
10:06 1 2 mph 1021mb 70f 65f
10:00 2 3 mph 1021mb 70f 65f
9:54 1 3 mph 1021mb 70f 65f
9:48 2 3 mph 1021mb 69f 65f
9:42  -  1 mph 1020.9mb 69f 65f
9:36 1 3 mph 1020.8mb 69f 64f
9:30 2 3 mph 1020.8mb 69f 64f
9:24 2 6 mph 1020.9mb 69f 63f
9:18 5 6 mph 1020.9mb 69f 63f
9:12 3 5 mph 1020.9mb 69f 63f
9:06 5 7 mph 1020.9mb 70f 63f
9:00 6 7 mph 1020.9mb 70f 62f
8:54 3 6 mph 1020.9mb 70f 62f
8:48 5 6 mph 1020.9mb 70f 62f
8:42 5 6 mph 1020.9mb 70f 62f
8:36 5 6 mph 1020.9mb 70f 62f
8:30 5 7 mph 1020.9mb 70f 62f
8:24 5 7 mph 1020.9mb 70f 62f
8:18 5 7 mph 1020.8mb 70f 62f
8:12 5 6 mph 1020.8mb 70f 61f
8:06 5 6 mph 1020.8mb 70f 61f
8:00 5 6 mph 1020.8mb 70f 61f
7:54 5 6 mph 1020.7mb 70f 61f
7:48 5 6 mph 1020.7mb 70f 61f
7:42 3 5 mph 1020.6mb 70f 61f
7:36 3 5 mph 1020.7mb 70f 61f
7:30 3 5 mph 1020.6mb 69f 61f
7:24 3 5 mph 1020.7mb 70f 61f
7:18 3
mph
1020.6mb 69f 61f
7:12 3 5 mph 1020.6mb 69f 61f
7:06 2 3 mph 1020.7mb 69f 60f
7:00 2 3 mph 1020.6mb 69f 60f
6:54 2 3 mph 1020.6mb 69f 60f
6:48 3
mph
1020.5mb 69f 60f
6:42 3 5 mph 1020.4mb 69f 60f
6:36 2 3 mph 1020.5mb 69f 60f
6:30 2
mph
1020.5mb 69f 60f
6:24 1 3 mph 1020.5mb 69f 61f
6:18 2 3 mph 1020.5mb 69f 61f
6:12 2 3 mph 1020.5mb 69f 60f
6:06 2 3 mph 1020.5mb 69f 60f
6:00 2 5 mph 1020.5mb 70f 60f
5:54 3 5 mph 1020.5mb 70f 60f
5:48 2 3 mph 1020.5mb 70f 61f
5:42 3 5 mph 1020.5mb 70f 61f
5:36  -  3 mph 1020.4mb 70f 62f
5:30 2 3 mph 1020.4mb 70f 61f
5:24 2 6 mph 1020.4mb 70f 62f
5:18 6 7 mph 1020.4mb 71f 61f
5:12 2 5 mph 1020.3mb 71f 62f
5:06 2 7 mph 1020.4mb 71f 62f
5:00 1 5 mph 1020.4mb 71f 61f
4:54 3 6 mph 1020.4mb 71f 61f
4:48  -  2 mph 1020.5mb 71f 61f
4:42 1 2 mph 1020.5mb 70f 61f
4:36 1
mph
1020.5mb 70f 61f
4:30  -  1 mph 1020.5mb 70f 61f
4:24  -  1 mph 1020.5mb 70f 61f
4:18 1 5 mph 1020.5mb 70f 61f
4:12 2 5 mph 1020.5mb 70f 61f
4:06 2 5 mph 1020.4mb 70f 61f
4:00 2 7 mph 1020.5mb 70f 61f
3:54 2 9 mph 1020.4mb 70f 62f
3:48 1 7 mph 1020.4mb 70f 62f
3:42 2 8 mph 1020.4mb 70f 62f
3:36 6 7 mph 1020.3mb 70f 62f
3:30 3 7 mph 1020.3mb 70f 61f
3:24 6 7 mph 1020.3mb 70f 61f
3:18 6 7 mph 1020.3mb 70f 61f
3:12 6 8 mph 1020.3mb 70f 62f
3:06 5 8 mph 1020.3mb 70f 61f
3:00 7 9 mph 1020.3mb 71f 61f
2:54 2 7 mph 1020.3mb 71f 62f
2:48 5 7 mph 1020.3mb 71f 62f
2:42 5 9 mph 1020.2mb 71f 62f
2:36 7 8 mph 1020.2mb 71f 62f
2:30 3 6 mph 1020.2mb 71f 62f
2:24 1 5 mph 1020.2mb 71f 62f
2:18 2 3 mph 1020.2mb 71f 62f
2:12 1 3 mph 1020.1mb 71f 62f
2:06 2 5 mph 1020.1mb 71f 62f
2:00 3 5 mph 1020.1mb 71f 62f
1:54 5 6 mph 1020.1mb 71f 62f
1:48 6 9 mph 1020.1mb 71f 62f
1:42 6 7 mph 1020.1mb 71f 62f
1:36 5 7 mph 1020.1mb 71f 62f
1:30 5 7 mph 1020.1mb 71f 62f
1:24 2 3 mph 1020mb 71f 62f
1:18 2 6 mph 1020mb 71f 62f
1:12 5 6 mph 1020mb 71f 62f
1:06 1 5 mph 1019.9mb 71f 62f
1:00 3 5 mph 1020mb 71f 62f
12:54 3 6 mph 1019.9mb 71f 62f
12:48 2 6 mph 1020mb 71f 62f
12:42 6 7 mph 1019.9mb 71f 62f
12:36 3 6 mph 1019.9mb 71f 62f
12:30 5 9 mph 1019.9mb 71f 62f
12:24 7 9 mph 1019.9mb 71f 62f
12:18 3 8 mph 1019.9mb 71f 62f
12:12 6 8 mph 1019.9mb 71f 62f
12:06 2 6 mph 1019.9mb 71f 62f
12:00 6 8 mph 1020mb 71f 62f
Mi 08/27 11:54  -  2 mph 1020mb 71f 62f
11:48 2 3 mph 1020mb 71f 61f
11:42 3 5 mph 1020mb 71f 61f
11:36 3 5 mph 1020mb 71f 61f
11:30 3 5 mph 1020mb 71f 61f
11:24 3 5 mph 1020mb 71f 61f
11:18 2
mph
1020mb 71f 61f
11:12 2
mph
1020mb 71f 61f
11:06 2 5 mph 1020mb 71f 62f
11:00 3 5 mph 1020.1mb 71f 62f
10:54 3 5 mph 1020.1mb 71f 62f
10:48 3 5 mph 1020.2mb 71f 62f
10:42 3 6 mph 1020.1mb 70f 62f
10:36 5 7 mph 1020.2mb 70f 62f
10:30 3 6 mph 1020.2mb 70f 62f
10:24 2 6 mph 1020.2mb 70f 62f
10:18 3 6 mph 1020.2mb 70f 62f
10:12 5 6 mph 1020.2mb 70f 62f
10:06 5 6 mph 1020.2mb 70f 62f
10:00 5 8 mph 1020.2mb 70f 62f
9:54 5 7 mph 1020.2mb 70f 62f
9:48 6 9 mph 1020.2mb 70f 62f
9:42 7 10 mph 1020.2mb 70f 62f
9:36 9 11 mph 1020.2mb 70f 62f
9:30 9 11 mph 1020.2mb 69f 62f
9:24 9 11 mph 1020.2mb 70f 62f
9:18 10 14 mph 1020.2mb 70f 63f
9:12 10 11 mph 1020.2mb 70f 62f
9:06 9 13 mph 1020.2mb 70f 62f
9:00 9 11 mph 1020.1mb 70f 63f
8:54 9 10 mph 1020mb 70f 63f
8:48 8 10 mph 1020mb 70f 63f
8:42 8 10 mph 1020mb 70f 63f
8:36 9 11 mph 1019.9mb 70f 64f
8:30 9 11 mph 1019.8mb 70f 64f
8:24 9 10 mph 1019.7mb 70f 64f
8:18 9 11 mph 1019.7mb 70f 64f
8:12 9 14 mph 1019.6mb 70f 64f
8:06 10 13 mph 1019.6mb 70f 65f
8:00 8 14 mph 1019.5mb 70f 65f
7:54 11 14 mph 1019.4mb 70f 65f
7:48 10 13 mph 1019.4mb 70f 65f
7:42 7 9 mph 1019.4mb 69f 66f
7:36 6 8 mph 1019.3mb 69f 66f
7:30 7 9 mph 1019.3mb 69f 66f
7:24 9 11 mph 1019.3mb 69f 67f
7:18 7 11 mph 1019.3mb 69f 67f
7:12 7 11 mph 1019.4mb 69f 67f
7:06 8 11 mph 1019.3mb 69f 67f
7:00 8 10 mph 1019.3mb 69f 68f
6:54 6 9 mph 1019.4mb 69f 68f
6:48 6 7 mph 1019.4mb 69f 68f
6:42 3 7 mph 1019.4mb 69f 68f
6:36 5 7 mph 1019.4mb 69f 68f
6:30 6 7 mph 1019.4mb 69f 68f
6:24 6 10 mph 1019.5mb 69f 68f
6:18 7 9 mph 1019.5mb 69f 68f
6:12 3 8 mph 1019.4mb 69f 70f
6:06  -  3 mph 1019.5mb 70f 71f
6:00  -  3 mph 1019.5mb 70f 71f
5:54  -  5 mph 1019.5mb 70f 71f
5:48  -  6 mph 1019.5mb 70f 71f
5:42 1 3 mph 1019.5mb 70f 71f
5:36 1 3 mph 1019.5mb 70f 71f
5:30  -  3 mph 1019.5mb 70f 71f
5:24 1 3 mph 1019.5mb 70f 70f
5:18 2 5 mph 1019.4mb 70f 70f
5:12 2 13 mph 1019.4mb 70f 69f
5:06 11 16 mph 1019.3mb 70f 67f
5:00 14 16 mph 1019.3mb 70f 67f
4:54 11 14 mph 1019.3mb 70f 66f
4:48 10 14 mph 1019.4mb 70f 66f
4:42 10 14 mph 1019.4mb 70f 66f
4:36 10 13 mph 1019.5mb 70f 66f
4:30 9 13 mph 1019.4mb 70f 67f
4:24 9 11 mph 1019.5mb 70f 66f
4:18 9 13 mph 1019.5mb 70f 66f
4:12 8 11 mph 1019.5mb 70f 66f
4:06 7 11 mph 1019.5mb 70f 66f
4:00 7 11 mph 1019.6mb 70f 66f
3:54 7 11 mph 1019.6mb 70f 67f
3:48 8 13 mph 1019.5mb 70f 66f
3:42 8 10 mph 1019.5mb 70f 66f
3:36 8 10 mph 1019.6mb 70f 66f
3:30 8 13 mph 1019.6mb 70f 66f
3:24 8 11 mph 1019.7mb 70f 65f
3:18 8 11 mph 1019.7mb 70f 65f
3:12 8 11 mph 1019.8mb 70f 65f
3:06 6 11 mph 1019.8mb 70f 65f
3:00 8 11 mph 1019.8mb 70f 65f
2:54 9 14 mph 1019.9mb 70f 64f
2:48 8 13 mph 1019.9mb 70f 65f
2:42 9 11 mph 1019.9mb 70f 64f
2:36 8 11 mph 1019.9mb 70f 65f
2:30 8 14 mph 1020mb 70f 65f
2:24 9 13 mph 1020mb 71f 64f
2:18 8 13 mph 1020mb 71f 64f
2:12 8 11 mph 1019.9mb 71f 64f
2:06 7 11 mph 1019.9mb 71f 65f
2:00 8 13 mph 1019.9mb 71f 64f
1:54 8 13 mph 1019.9mb 71f 65f
1:48 9 13 mph 1019.9mb 71f 64f
1:42 8 13 mph 1019.9mb 71f 65f
1:36 8 13 mph 1019.9mb 71f 64f
1:30 7 11 mph 1019.9mb 71f 64f
1:24 7 11 mph 1020mb 71f 64f
1:18 8 13 mph 1020mb 71f 65f
1:12 6 11 mph 1020mb 71f 65f
1:06 6 10 mph 1020mb 71f 65f
1:00 6 10 mph 1020mb 71f 65f
12:54 6 10 mph 1020mb 71f 65f
12:48 6 9 mph 1019.9mb 71f 65f
12:42 6 10 mph 1019.9mb 71f 64f
12:36 3 9 mph 1020mb 71f 65f
12:30 5 9 mph 1020mb 71f 65f
12:24 5 8 mph 1020.1mb 71f 64f
12:18 5 8 mph 1020.1mb 71f 64f
12:12 5 8 mph 1020mb 71f 64f
12:06 6 9 mph 1020mb 71f 64f
12:00 5 9 mph 1020mb 71f 64f
11:54 6 8 mph 1020mb 71f 63f
11:48 5 9 mph 1020.1mb 71f 63f
11:42 3 7 mph 1020.1mb 71f 63f
11:36 2 6 mph 1020.1mb 71f 63f
11:30 3 6 mph 1020.1mb 71f 63f
11:24 3 6 mph 1020.1mb 71f 63f
11:18 1 6 mph 1020mb 71f 63f
11:12 3 6 mph 1020mb 71f 62f
11:06 3 6 mph 1020.1mb 71f 62f
11:00 5 7 mph 1020.1mb 70f 62f
10:54 1 5 mph 1020.1mb 70f 62f
10:48 2 5 mph 1020.1mb 70f 62f
10:42 1 7 mph 1020.1mb 70f 62f
10:36 2 6 mph 1020.1mb 70f 62f
10:30 5 8 mph 1020mb 70f 61f
10:24 3 6 mph 1020mb 70f 61f
10:18 3 7 mph 1020mb 69f 61f
10:12 3 7 mph 1019.9mb 69f 61f
10:06 6 9 mph 1020mb 69f 60f
10:00 5 8 mph 1019.9mb 69f 60f
9:54 5 7 mph 1019.9mb 69f 60f
9:48 5 7 mph 1019.9mb 69f 60f
9:42 3 7 mph 1019.8mb 69f 60f
9:36 5 7 mph 1019.8mb 69f 60f
9:30 5 7 mph 1019.8mb 69f 60f
9:24 5 9 mph 1019.7mb 69f 59f
9:18 7 10 mph 1019.6mb 69f 59f
9:12 8 10 mph 1019.6mb 69f 59f
9:06 7 9 mph 1019.6mb 69f 59f
9:00 5 8 mph 1019.6mb 69f 60f
8:54 7 10 mph 1019.5mb 69f 59f
8:48 7 9 mph 1019.5mb 69f 59f
8:42 6 7 mph 1019.5mb 69f 58f
8:36 6 7 mph 1019.5mb 69f 58f
8:30 6 8 mph 1019.5mb 69f 58f
8:24 7 8 mph 1019.5mb 69f 58f
8:18 7 8 mph 1019.5mb 69f 58f
8:12 7 9 mph 1019.5mb 69f 58f
8:06 6 10 mph 1019.4mb 69f 58f
8:00 6 9 mph 1019.4mb 69f 58f
7:54 7 9 mph 1019.4mb 69f 58f
7:48 6 8 mph 1019.3mb 69f 58f
7:42 6 8 mph 1019.3mb 69f 58f
7:36 5 7 mph 1019.2mb 69f 58f
7:30 6 7 mph 1019.2mb 69f 58f
7:24 5 7 mph 1019.2mb 69f 57f
7:18 6 7 mph 1019.2mb 69f 57f
7:12 5 7 mph 1019mb 69f 57f
7:06 6 9 mph 1019mb 69f 58f
7:00 6 8 mph 1019mb 69f 58f
6:54 6 8 mph 1019.1mb 69f 57f
6:48 6 9 mph 1019mb 69f 57f
6:42 7 9 mph 1019mb 69f 58f
6:36 6 8 mph 1018.9mb 69f 57f
6:30 7 10 mph 1018.8mb 69f 57f
6:24 6 7 mph 1018.8mb 69f 57f
6:18 6 9 mph 1018.7mb 69f 57f
6:12 7 10 mph 1018.7mb 69f 57f
6:06 6 9 mph 1018.7mb 69f 57f
6:00 6 8 mph 1018.6mb 69f 57f
5:54 7 10 mph 1018.6mb 69f 57f
5:48 7 9 mph 1018.6mb 69f 57f
5:42 7 9 mph 1018.6mb 69f 57f
5:36 6 11 mph 1018.6mb 69f 57f
5:30 7 10 mph 1018.5mb 69f 57f
5:24 6 10 mph 1018.4mb 69f 58f
5:18 7 11 mph 1018.4mb 69f 58f
5:12 8 10 mph 1018.4mb 69f 58f
5:06 8 10 mph 1018.4mb 70f 58f
5:00 7 9 mph 1018.4mb 70f 58f
4:54 9 10 mph 1018.3mb 70f 58f
4:48 6 8 mph 1018.3mb 70f 59f
4:42 8 11 mph 1018.3mb 70f 58f
4:36 9 11 mph 1018.3mb 70f 58f
4:30 9 11 mph 1018.3mb 70f 58f
4:24 10 14 mph 1018.3mb 70f 58f
4:18 10 13 mph 1018.3mb 70f 58f
4:12 7 10 mph 1018.3mb 70f 58f
4:06 8 10 mph 1018.3mb 70f 58f
4:00 7 9 mph 1018.3mb 70f 58f
3:54 8 10 mph 1018.4mb 69f 58f
3:48 6 9 mph 1018.4mb 69f 58f
3:42 8 10 mph 1018.4mb 69f 58f
3:36 9 13 mph 1018.4mb 69f 58f
3:30 8 11 mph 1018.4mb 69f 58f
3:24 6 8 mph 1018.3mb 69f 59f
3:18 6 8 mph 1018.3mb 69f 58f
3:12 6 9 mph 1018.2mb 69f 58f
3:06 6 8 mph 1018.2mb 69f 58f
3:00 8 10 mph 1018.3mb 69f 58f
2:54 8 13 mph 1018.3mb 69f 58f
2:48 10 13 mph 1018.3mb 69f 58f
2:42 11 13 mph 1018.3mb 69f 58f
2:36 8 11 mph 1018.2mb 69f 58f
2:30 8 11 mph 1018.2mb 70f 58f
2:24 6 10 mph 1018.2mb 70f 58f
2:18 6 10 mph 1018.2mb 70f 58f
2:12 7 9 mph 1018.2mb 70f 59f
2:06 6 9 mph 1018.1mb 70f 59f
2:00 6 9 mph 1018mb 70f 59f
1:54 9 11 mph 1017.9mb 70f 58f
1:48 9 13 mph 1017.9mb 70f 59f
1:42 7 11 mph 1018mb 71f 59f
1:36 6 9 mph 1018mb 71f 60f
1:30 5 8 mph 1018mb 71f 60f
1:24 5 7 mph 1017.9mb 71f 60f
1:18 3 6 mph 1017.9mb 71f 59f
1:12 5 7 mph 1017.9mb 71f 59f
1:06 3 5 mph 1018mb 71f 59f
1:00 1 6 mph 1018mb 71f 59f
12:54 3 6 mph 1018mb 71f 60f
12:48 3 5 mph 1017.9mb 71f 59f
12:42 2 5 mph 1017.8mb 71f 60f
12:36  -  2 mph 1017.7mb 72f 60f
12:30 1 3 mph 1017.7mb 72f 60f
12:24 2 6 mph 1017.7mb 72f 59f
12:18 3 5 mph 1017.7mb 72f 60f
12:12 2 6 mph 1017.7mb 72f 60f
12:06 5 9 mph 1017.8mb 72f 60f
12:00 6 8 mph 1017.8mb 72f 60f
Di 08/26 11:54 2 5 mph 1017.8mb 72f 60f
11:48 3 5 mph 1017.8mb 72f 61f
11:42 3 5 mph 1017.7mb 72f 60f
11:36 2 5 mph 1017.7mb 72f 60f
11:30 3 6 mph 1017.6mb 72f 60f
11:24 6 8 mph 1017.6mb 72f 60f
11:18 6 9 mph 1017.6mb 72f 60f
11:12 8 10 mph 1017.6mb 72f 60f
11:06 8 13 mph 1017.6mb 72f 61f
11:00 8 13 mph 1017.6mb 71f 61f
10:54 8 15 mph 1017.7mb 71f 60f
10:48 9 11 mph 1017.8mb 71f 60f
10:42 10 14 mph 1017.7mb 71f 61f
10:36 8 10 mph 1017.6mb 71f 61f
10:30 6 9 mph 1017.5mb 71f 61f
10:24 7 9 mph 1017.5mb 71f 61f
10:18 7 11 mph 1017.5mb 71f 61f
10:12 7 11 mph 1017.5mb 71f 61f
10:06 7 10 mph 1017.5mb 70f 61f
10:00 7 10 mph 1017.6mb 70f 62f
9:54 7 11 mph 1017.6mb 70f 62f
9:48 6 11 mph 1017.6mb 70f 62f
9:42 7 11 mph 1017.6mb 70f 62f
9:36 7 10 mph 1017.6mb 70f 62f
9:30 6 9 mph 1017.6mb 70f 62f
9:24 6 8 mph 1017.6mb 70f 63f
9:18 5 8 mph 1017.6mb 70f 63f
9:12 3 5 mph 1017.6mb 70f 62f
9:06 2 6 mph 1017.5mb 70f 63f
9:00 6 9 mph 1017.5mb 70f 63f
8:54 6 11 mph 1017.4mb 70f 63f
8:48 9 13 mph 1017.3mb 70f 63f
8:42 9 11 mph 1017.3mb 70f 63f
8:36 9 13 mph 1017.3mb 70f 64f
8:30 9 11 mph 1017.1mb 70f 64f
8:24 7 10 mph 1017.1mb 70f 64f
8:18 7 10 mph 1017mb 70f 65f
8:12 6 10 mph 1017mb 70f 65f
8:06 6 9 mph 1017mb 70f 65f
8:00 5 8 mph 1016.9mb 70f 66f
7:54 5 7 mph 1016.9mb 70f 66f
7:48 6 7 mph 1016.9mb 70f 66f
7:42 3 6 mph 1016.9mb 70f 66f
7:36 5 6 mph 1016.9mb 70f 67f
7:30 5 8 mph 1016.9mb 70f 67f
7:24 5 7 mph 1016.9mb 70f 67f
7:18 6 8 mph 1016.9mb 69f 68f
7:12 7 8 mph 1016.9mb 69f 67f
7:06 7 9 mph 1017mb 69f 67f
7:00 8 14 mph 1017mb 69f 67f
6:54 9 14 mph 1017mb 69f 67f
6:48 10 13 mph 1017mb 69f 67f
6:42 5 6 mph 1017mb 70f 69f
6:36 5 7 mph 1016.9mb 70f 69f
6:30 5 8 mph 1016.8mb 70f 69f
6:24 6 8 mph 1016.8mb 70f 69f
6:18 3 7 mph 1016.7mb 69f 70f
6:12 6 8 mph 1016.8mb 69f 69f
6:06 7 11 mph 1016.8mb 69f 69f
6:00 8 11 mph 1016.8mb 69f 69f
5:54 8 9 mph 1016.8mb 69f 70f
5:48 6 10 mph 1016.8mb 69f 70f
5:42 8 10 mph 1016.9mb 70f 69f
5:36 7 10 mph 1016.9mb 70f 69f
5:30 7 10 mph 1016.9mb 70f 69f
5:24 7 11 mph 1017.1mb 70f 69f
5:18 8 11 mph 1017.1mb 70f 69f
5:12 8 11 mph 1017.1mb 69f 69f
5:06 8 14 mph 1017.2mb 69f 69f
5:00 9 11 mph 1017.2mb 69f 69f
4:54 8 11 mph 1017.2mb 69f 68f
4:48 9 11 mph 1017.2mb 70f 68f
4:42 8 13 mph 1017.2mb 70f 68f
4:36 9 11 mph 1017.2mb 70f 69f
4:30 10 13 mph 1017.2mb 70f 69f
4:24 10 13 mph 1017.2mb 70f 69f
4:18 9 11 mph 1017.2mb 70f 69f
4:12 8 11 mph 1017.2mb 70f 69f
4:06 10 13 mph 1017.3mb 70f 68f
4:00 9 11 mph 1017.3mb 70f 68f
3:54 9 14 mph 1017.3mb 70f 68f
3:48 9 13 mph 1017.4mb 70f 67f
3:42 9 14 mph 1017.4mb 70f 67f
3:36 8 15 mph 1017.4mb 70f 67f
3:30 9 14 mph 1017.5mb 70f 67f
3:24 10 15 mph 1017.5mb 70f 67f
3:18 11 15 mph 1017.4mb 70f 67f
3:12 11 16 mph 1017.5mb 70f 68f
3:06 13 18 mph 1017.6mb 70f 67f
3:00 13 16 mph 1017.6mb 70f 67f
2:54 13 18 mph 1017.7mb 70f 67f
2:48 8 14 mph 1017.7mb 70f 67f
2:42 7 13 mph 1017.7mb 70f 67f
2:36 6 14 mph 1017.8mb 70f 68f
2:30 5 11 mph 1017.8mb 70f 68f
2:24 5 14 mph 1017.8mb 71f 68f
2:18 10 15 mph 1017.8mb 70f 67f
2:12 9 15 mph 1017.8mb 70f 67f
2:06 8 15 mph 1017.9mb 70f 67f
2:00 8 15 mph 1017.9mb 71f 67f
1:54 8 16 mph 1017.9mb 71f 67f
1:48 10 16 mph 1018mb 71f 66f
1:42 11 17 mph 1018mb 71f 66f
1:36 11 15 mph 1018mb 72f 66f
1:30 10 16 mph 1018.2mb 72f 66f
1:24 9 15 mph 1018.2mb 72f 65f
1:18 8 15 mph 1018.2mb 72f 65f
1:12 9 14 mph 1018.2mb 72f 66f
1:06 8 14 mph 1018.2mb 71f 65f
1:00 6 13 mph 1018.2mb 71f 66f
12:54 7 11 mph 1018.3mb 71f 65f
12:48 5 10 mph 1018.2mb 72f 66f
12:42 2 9 mph 1018.3mb 72f 66f
12:36 5 9 mph 1018.3mb 72f 65f
12:30 3 8 mph 1018.2mb 72f 65f
12:24 3 7 mph 1018.3mb 72f 65f
12:18 2 7 mph 1018.4mb 72f 65f
12:12 3 7 mph 1018.5mb 72f 65f
12:06 1 5 mph 1018.4mb 72f 65f
12:00 2 7 mph 1018.4mb 72f 65f
11:54 2 7 mph 1018.4mb 72f 65f
11:48 2 6 mph 1018.4mb 71f 65f
11:42 2 6 mph 1018.3mb 71f 64f
11:36 1 6 mph 1018.3mb 71f 65f
11:30 1 6 mph 1018.4mb 71f 64f
11:24 2 6 mph 1018.4mb 71f 65f
11:18 2 6 mph 1018.4mb 71f 65f
11:12 2 3 mph 1018.4mb 71f 64f
11:06 2 3 mph 1018.4mb 71f 64f
11:00 2
mph
1018.4mb 71f 64f
10:54 1 2 mph 1018.4mb 71f 63f
10:48  -  2 mph 1018.4mb 71f 64f
10:42 1 3 mph 1018.4mb 71f 63f
10:36 2 3 mph 1018.5mb 71f 63f
10:30 2 3 mph 1018.5mb 71f 62f
10:24 2 3 mph 1018.4mb 70f 62f
10:18 3 5 mph 1018.4mb 70f 61f
10:12 2 3 mph 1018.4mb 70f 62f
10:06 2 3 mph 1018.4mb 70f 61f
10:00 3 5 mph 1018.4mb 70f 61f
9:54 3 5 mph 1018.4mb 70f 60f
9:48 2 3 mph 1018.5mb 70f 60f
9:42 2 5 mph 1018.5mb 69f 60f
9:36 2 3 mph 1018.5mb 69f 60f
9:30 1 5 mph 1018.6mb 69f 60f
9:24 2 5 mph 1018.5mb 69f 60f
9:18 5 6 mph 1018.5mb 69f 60f
9:12 2 6 mph 1018.5mb 69f 60f
9:06 3 5 mph 1018.5mb 69f 60f
9:00 3 6 mph 1018.5mb 69f 60f
8:54 1 2 mph 1018.5mb 69f 60f
8:48 1 2 mph 1018.4mb 69f 60f
8:42 1 2 mph 1018.4mb 69f 60f
8:36 1 5 mph 1018.4mb 69f 59f
8:30 5 6 mph 1018.4mb 69f 59f
8:24 3 7 mph 1018.4mb 69f 59f
8:18 6 8 mph 1018.4mb 69f 59f
8:12 3 7 mph 1018.3mb 69f 59f
8:06 5 6 mph 1018.3mb 69f 59f
8:00 3 8 mph 1018.3mb 69f 59f
7:54 6 8 mph 1018.2mb 69f 59f
7:48 2 5 mph 1018.1mb 69f 59f
7:42 2 3 mph 1018.1mb 69f 59f
7:36 3 5 mph 1018mb 69f 59f
7:30 2
mph
1018mb 69f 59f
7:24 1 2 mph 1018mb 69f 59f
7:18 2 3 mph 1017.9mb 69f 58f
7:12 2 5 mph 1018mb 69f 58f
7:06 3 5 mph 1018mb 69f 58f
7:00 3 5 mph 1017.9mb 69f 58f
6:54 3 5 mph 1017.9mb 69f 58f
6:48 3 6 mph 1017.9mb 69f 59f
6:42 5 6 mph 1017.8mb 69f 59f
6:36 2 3 mph 1017.7mb 69f 59f
6:30 1 3 mph 1017.7mb 69f 59f
6:24 2 5 mph 1017.7mb 69f 59f
6:18 3 5 mph 1017.6mb 69f 59f
6:12 5 6 mph 1017.5mb 69f 59f
6:06 2 3 mph 1017.5mb 69f 60f
6:00 2 5 mph 1017.5mb 69f 59f
5:54 3 5 mph 1017.4mb 69f 59f
5:48 2 3 mph 1017.4mb 69f 59f
5:42  -  1 mph 1017.4mb 69f 58f
5:36 1 2 mph 1017.4mb 69f 58f
5:30 2 3 mph 1017.3mb 69f 58f
5:24 1 2 mph 1017.3mb 69f 58f
5:18 2 3 mph 1017.4mb 69f 58f
5:12 2 3 mph 1017.4mb 69f 58f
5:06 2 3 mph 1017.5mb 69f 58f
5:00 1 2 mph 1017.5mb 69f 58f
4:54 2
mph
1017.5mb 69f 58f
4:48 2 5 mph 1017.5mb 69f 57f
4:42 3
mph
1017.5mb 69f 57f
4:36 3 5 mph 1017.4mb 69f 57f
4:30 5 6 mph 1017.4mb 69f 57f
4:24 6
mph
1017.4mb 70f 57f
4:18 5 6 mph 1017.4mb 70f 57f
4:12 5 6 mph 1017.4mb 70f 57f
4:06 5 6 mph 1017.4mb 70f 57f
4:00 5 6 mph 1017.4mb 70f 57f
3:54 3 5 mph 1017.4mb 70f 58f
3:48 3 6 mph 1017.4mb 70f 58f
3:42 5 6 mph 1017.3mb 70f 58f
3:36 3 5 mph 1017.3mb 70f 58f
3:30 3 5 mph 1017.3mb 70f 58f
3:24 2 3 mph 1017.3mb 70f 58f
3:18 1 2 mph 1017.3mb 70f 58f
3:12 2 5 mph 1017.3mb 69f 58f
3:06 3 6 mph 1017.3mb 69f 58f
3:00 2 6 mph 1017.3mb 69f 58f
2:54 2 5 mph 1017.3mb 69f 58f
2:48 2 6 mph 1017.2mb 69f 58f
2:42 5 6 mph 1017.2mb 69f 58f
2:36 5 7 mph 1017.2mb 69f 58f
2:30 1 8 mph 1017.2mb 69f 58f
2:24 6 8 mph 1017.2mb 69f 58f
2:18 7 9 mph 1017.2mb 69f 59f
2:12 7 9 mph 1017.3mb 69f 59f
2:06 6 8 mph 1017.3mb 69f 59f
2:00 6 8 mph 1017.3mb 70f 59f
1:54 6 8 mph 1017.2mb 70f 58f
1:48 6 8 mph 1017.2mb 70f 58f
1:42 6 8 mph 1017.2mb 70f 59f
1:36 6 8 mph 1017.2mb 70f 59f
1:30 5 7 mph 1017.2mb 70f 59f
1:24 3 7 mph 1017.2mb 70f 59f
1:18 3 8 mph 1017.2mb 70f 59f
1:12 3 7 mph 1017.2mb 71f 59f
1:06 3 7 mph 1017.2mb 71f 59f
1:00 5 8 mph 1017.2mb 71f 59f
12:54 3 8 mph 1017.2mb 71f 59f
12:48 2 8 mph 1017.2mb 71f 59f
12:42 3 8 mph 1017.2mb 71f 59f
12:36 5 8 mph 1017.2mb 71f 59f
12:30 3 9 mph 1017.2mb 71f 59f
12:24 2 8 mph 1017.2mb 71f 60f
12:18 5 8 mph 1017.2mb 71f 60f
12:12 1 7 mph 1017.1mb 71f 60f
12:06 1 6 mph 1017.2mb 71f 61f
12:00 1 2 mph 1017.1mb 71f 61f
Mo 08/25 11:54 1 5 mph 1017.1mb 71f 61f
11:48 2 5 mph 1017.1mb 72f 61f
11:42 1 5 mph 1017mb 72f 61f
11:36  -  3 mph 1017mb 72f 61f
11:30  -  3 mph 1017mb 72f 61f
11:24 1 6 mph 1017.1mb 72f 61f
11:18 2 8 mph 1017.1mb 72f 61f
11:12 3 8 mph 1017.1mb 72f 61f
11:06 5 9 mph 1017.1mb 72f 61f
11:00 6 11 mph 1017.1mb 72f 61f